SCP
0 0 0 0 0 0 0 0 0 0 0 0 0 0 0 0 0 0 0 0 0 0 0 0 0 0 0 0 0 0 0 0 0 0 0 0 0 0
0 0 0 0 0 0 0 0 0 0 0 0 0 0 0 0 0 0 0 0 0 0 0 0 0 0 0 0 0 0 0 0 0 0 0 0 0 0
0 0 0 0 0 0 0 0 0 0 0 0 0 0 0 0 0 0 0 0 0 0 0 0 0 0 0 0 0 0 0 0 0 0 0 0 0 0
0 0 0 0 0 0 0 0 0 0 0 0 0 0 0 0 0 0 0 0 0 0 0 0 0 0 0 0 0 0 0 0 0 0 0 0 0 0
0 0 0 0 0 0 0 0 0 0 0 0 0 0 0 0 0 0 0 0 0 0 0 0 0 0 0 0 0 0 0 0 0 0 0 0 0 0
0 0 0 0 0 0 0 0 0 0 0 0 0 0 0 0 0 0 0 0 0 0 0 0 0 0 0 0 0 0 0 0 0 0 0 0 0 0
0 0 0 0 0 0 0 0 0 0 0 0 0 0 0 0 0 0 0 0 0 0 0 0 0 0 0 0 0 0 0 0 0 0 0 0 0 0
0 0 0 0 0 0 0 0 0 0 0 0 0 0 0 0 0 0 0 0 0 0 0 0 0 0 0 0 0 0 0 0 0 0 0 0 0 0
0 0 0 0 0 0 0 0 0 0 0 0 0 0 0 0 0 0 0 0 0 0 0 0 0 0 0 0 0 0 0 0 0 0 0 0 0 0
0 0 0 0 0 0 0 0 0 0 0 0 0 0 0 0 0 0 0 0 0 0 0 0 0 0 0 0 0 0 0 0 0 0 0 0 0 0
0 0 0 0 0 0 0 0 0 0 0 0 0 0 0 0 0 0 0 0 0 0 0 0 0 0 0 0 0 0 0 0 0 0 0 0 0 0
0 0 0 0 0 0 0 0 0 0 0 0 0 0 0 0 0 0 0 0 0 0 0 0 0 0 0 0 0 0 0 0 0 0 0 0 0 0
0 0 0 0 0 0 0 0 0 0 0 0 0 0 0 0 0 0 0 0 0 0 0 0 0 0 0 0 0 0 0 0 0 0 0 0 0 0
0 0 0 0 0 0 0 0 0 0 0 0 0 0 0 0 0 0 0 0 0 0 0 0 0 0 0 0 0 0 0 0 0 0 0 0 0 0
0 0 0 0 0 0 0 0 0 0 0 0 0 0 0 0 0 0 0 0 0 0 0 0 0 0 0 0 0 0 0 0 0 0 0 0 0 0
0 0 0 0 0 0 0 0 0 0 0 0 0 0 0 0 0 0 0 0 0 0 0 0 0 0 0 0 0 0 0 0 0 0 0 0 0 0
0 0 0 0 0 0 0 0 0 0 0 0 0 0 0 0 0 0 0 0 0 0 0 0 0 0 0 0 0 0 0 0 0 0 0 0 0 0
0 0 0 0 0 0 0 0 0 0 0 0 0 0 0 0 0 0 0 0 0 0 0 0 0 0 0 0 0 0 0 0 0 0 0 0 0 0
0 0 0 0 0 0 0 0 0 0 0 0 0 0 0 0 0 0 0 0 0 0 0 0 0 0 0 0 0 0 0 0 0 0 0 0 0 0
0 0 0 0 0 0 0 0 0 0 0 0 0 0 0 0 0 0 0 0 0 0 0 0 0 0 0 0 0 0 0 0 0 0 0 0 0 0
0 0 0 0 0 0 0 0 0 0 0 0 0 0 0 0 0 0 0 0 0 0 0 0 0 0 0 0 0 0 0 0 0 0 0 0 0 0
0 0 0 0 0 0 0 0 0 0 0 0 0 0 0 0 0 0 0 0 0 0 0 0 0 0 0 0 0 0 0 0 0 0 0 0 0 0
0 0 0 0 0 0 0 0 0 0 0 0 0 0 0 0 0 0 0 0 0 0 0 0 0 0 0 0 0 0 0 0 0 0 0 0 0 0
Wind_Speed
6 6 5 4 4 3 3 3 5 4 4 3 2 3 3 3 5 6 8 10 13 16 18 19 19 20 21 21 22 22 22 23 23 23 24 24 24 25
6 8 7 5 5 4 4 4 3 2 2 2 2 3 3 4 6 8 9 12 15 17 18 18 19 20 21 21 22 22 22 23 23 24 24 25 25 25
8 9 8 8 6 5 5 4 3 2 2 1 2 2 4 6 6 7 8 9 9 15 17 18 20 20 21 21 21 21 22 22 23 24 24 25 25 25
10 10 9 7 7 5 4 4 3 2 2 3 3 4 6 7 8 9 8 8 9 14 18 19 20 20 20 20 20 21 21 22 23 24 25 25 26 26
10 10 9 8 7 5 4 3 2 2 2 3 4 4 5 6 7 8 9 9 9 11 15 17 18 18 19 20 21 21 22 23 23 24 25 25 26 26
9 8 7 6 6 5 3 3 2 2 3 4 5 5 6 6 6 7 7 7 8 9 11 13 15 17 19 21 21 22 22 22 23 23 24 24 25 26
9 7 6 6 6 4 3 3 3 3 4 4 5 5 6 5 6 6 8 8 9 9 8 7 9 10 12 16 18 19 20 21 22 23 24 24 25 26
8 6 6 5 4 3 2 3 4 5 5 5 5 6 7 7 6 7 8 9 9 6 8 10 10 11 11 10 16 20 22 23 23 24 24 24 25 25
6 5 3 3 2 1 2 4 6 7 8 7 8 8 8 8 8 9 9 10 11 10 11 12 11 12 10 11 19 22 23 23 23 23 23 23 23 24
4 3 2 1 0 3 4 4 5 6 6 7 8 8 8 8 8 9 10 11 12 10 10 12 11 11 11 11 17 21 22 22 22 23 23 23 23 24
3 2 1 1 2 5 5 5 6 6 6 9 12 12 14 15 12 8 8 8 10 9 8 8 9 11 11 12 12 17 19 21 23 23 24 24 24 23
1 1 1 3 5 6 5 6 7 7 7 7 8 9 9 9 10 8 7 7 7 7 5 5 8 8 9 8 8 9 12 18 22 23 23 23 22 14
1 1 2 5 7 7 7 6 7 9 8 7 7 7 6 5 5 5 5 6 8 8 7 6 7 7 8 9 10 10 11 11 12 13 17 20 20 16
2 2 3 6 8 8 6 7 10 9 5 6 6 6 5 5 5 6 8 9 10 12 12 10 9 9 10 12 12 10 10 11 11 12 11 14 16 18
3 4 6 7 7 5 5 7 7 4 5 5 6 6 6 7 7 7 8 9 11 12 12 13 12 11 11 12 12 13 12 11 11 10 9 9 10 10
3 4 5 5 5 5 5 4 3 4 5 6 6 6 7 7 7 7 8 8 9 10 8 10 12 13 12 14 13 14 13 10 9 10 11 11 11 11
4 3 3 3 3 3 3 3 3 4 4 5 6 7 7 7 7 7 7 7 8 10 11 8 8 10 14 13 14 14 13 13 12 11 11 12 12 11
4 4 4 4 4 4 5 5 4 4 4 5 6 7 7 8 8 8 8 8 10 10 11 10 9 10 10 11 16 16 13 12 11 11 11 13 14 11
3 3 4 4 4 4 5 5 6 5 5 6 7 7 7 8 8 9 9 9 10 10 10 10 9 10 12 13 9 11 12 12 12 12 12 12 14 13
3 4 4 4 5 5 5 6 6 6 6 6 7 7 8 8 9 9 9 10 11 11 11 10 9 9 11 13 14 14 13 14 12 13 13 12 13 17
4 4 5 5 5 6 6 6 7 7 8 7 8 8 8 8 9 10 10 14 13 11 12 12 11 14 11 11 12 13 11 12 14 13 14 13 13 12
5 5 5 6 6 6 6 7 7 8 8 8 8 8 8 8 10 12 11 11 11 11 13 12 11 11 10 12 14 16 16 13 12 17 21 19 12 9
5 6 6 6 6 6 6 7 9 8 8 8 8 8 9 9 10 10 11 11 12 13 13 13 12 10 11 11 13 14 17 16 13 12 11 13 19 24
Wind_Direction
164 152 136 122 112 107 109 128 149 176 198 176 183 196 210 220 227 258 274 277 285 289 291 293 293 293 292 290 289 288 287 286 285 283 282 280 278 277
138 137 127 124 113 103 100 89 88 131 174 168 195 194 213 242 256 271 277 284 280 282 286 288 290 290 289 287 286 285 285 284 283 282 281 280 279 278
134 131 125 123 115 106 100 102 102 116 168 203 211 228 249 261 269 271 276 278 278 279 283 287 289 287 286 285 285 284 283 283 282 282 282 281 281 280
132 127 125 120 114 113 114 119 127 146 190 233 232 235 249 264 274 279 279 277 278 282 285 287 286 286 285 284 283 282 282 282 283 282 282 281 281 280
124 123 123 127 124 123 125 134 149 173 209 240 257 253 258 264 277 277 278 277 278 280 283 284 285 285 285 284 284 284 284 283 282 281 280 279 278 277
108 110 115 121 123 129 135 152 172 200 223 242 255 263 266 271 273 281 286 287 288 288 285 283 283 284 283 283 282 282 282 281 280 279 278 276 274 273
96 95 101 112 128 140 155 176 199 227 242 250 261 268 271 277 281 291 291 297 295 289 286 287 288 285 284 282 280 278 279 279 279 278 277 275 274 273
101 101 109 116 128 141 201 244 247 253 257 261 269 273 281 285 290 293 296 298 300 296 299 295 292 287 285 282 283 285 284 283 283 281 280 278 275 274
106 113 115 119 129 219 253 257 255 262 269 275 275 276 284 290 294 292 289 290 287 291 296 291 290 287 286 284 286 285 286 286 286 284 281 279 276 274
101 106 111 127 257 279 269 268 268 264 267 269 273 279 282 286 282 281 284 285 283 282 280 284 289 289 292 289 287 286 286 287 286 286 284 282 281 279
96 85 14 302 295 283 281 282 285 282 270 271 278 281 284 285 287 286 282 283 287 290 289 281 288 298 294 287 284 284 284 285 285 285 285 283 281 279
99 76 355 318 308 301 293 286 286 294 297 289 282 279 280 280 277 266 268 271 279 288 285 283 292 306 298 282 287 290 288 285 285 284 283 282 281 278
355 340 346 323 313 311 304 291 293 299 297 295 293 291 288 281 275 269 262 256 263 265 276 290 284 285 277 289 292 287 283 285 288 286 285 282 279 273
335 330 327 322 317 314 306 302 302 302 294 292 291 294 298 298 297 292 281 268 258 262 271 274 271 274 278 283 285 286 287 288 287 285 283 283 279 274
331 331 326 324 317 303 297 305 304 290 288 289 291 295 297 297 295 289 283 274 268 264 261 257 255 261 262 268 276 285 293 292 284 278 279 279 279 277
314 312 310 305 293 293 300 293 285 291 297 293 295 297 296 292 288 290 293 298 293 286 265 248 247 251 259 265 271 278 280 279 281 282 282 279 274 268
319 303 306 313 314 316 309 303 296 290 289 292 294 294 294 294 292 292 287 288 283 291 297 288 262 249 250 258 268 269 272 274 274 280 283 282 277 270
311 303 312 316 317 317 314 312 307 300 297 295 290 287 289 291 292 291 285 282 283 286 290 294 295 290 277 256 237 257 267 274 279 280 280 282 282 277
300 304 306 305 303 300 299 298 297 296 294 286 283 283 284 285 286 288 288 286 285 286 288 290 290 289 292 296 278 233 258 279 285 283 278 276 279 282
299 297 297 297 295 294 294 293 293 293 287 283 282 281 281 282 284 285 286 287 290 291 291 288 284 283 285 291 292 287 265 266 276 281 284 282 278 278
297 292 290 290 290 289 288 288 287 286 285 285 282 281 280 280 281 284 286 288 290 289 290 290 286 286 283 280 279 282 283 263 259 269 282 285 287 286
291 289 288 285 285 284 284 284 284 283 284 280 280 280 280 279 281 284 285 287 288 287 288 288 288 287 283 282 285 290 295 294 278 264 260 258 269 279
289 288 287 285 281 279 279 280 280 280 280 280 280 280 282 281 281 282 284 284 285 287 290 292 293 290 287 284 286 289 293 298 299 297 283 264 257 259